User: anonymous   Login
Location: *
(10.4782°N, 67.2163°W)
Time: 06:07:51
(UTC+00:00)
Language:

Ariane H10 - Orbit

View from above orbital plane
View from above orbital plane
View from above satellite
View from above satellite

Ground track
Ground track

The orbit data is extracted from the following two-line orbital elements,

1 15562U 85015C   24204.01923682  .00001847  00000-0  16269-2 0  9997
2 15562   6.7776 231.6522 6655943 115.8825 324.9542  3.04979199343946
Epoch (UTC): 22 July 2024 00:27:42
Eccentricity: 0.6655943
inclination: 6.7776°
perigee height: 338 km
apogee height: 27076 km
right ascension of ascending node: 231.6522°
argument of perigee: 115.8825°
revolutions per day: 3.04979199
mean anomaly at epoch: 324.9542°
orbit number at epoch: 34394

The dashed part of the orbit path shows where the satellite is in the earth's shadow,  

DLR